Regional Weather Roundup
Issued by NWS

Home | Current Version | Previous Version | Graphics & Text | Print | Product List | Glossary On
Versions: 1 2 3 4 5 6 7 8 9 10 11 12 13 14 15 16 17 18 19 20 21 22 23 24 25 26 27 28 29 30 31 32 33 34 35 36 37 38 39 40 41 42 43 44 45 46 47 48 49 50
000
ASUS45 KTFX 300519
RWRMT
MONTANA HOURLY WEATHER ROUNDUP
NATIONAL WEATHER SERVICE GREAT FALLS MT
1119 PM MDT SUN MAR 29 2015

NOTE: "FAIR" INDICATES FEW OR NO CLOUDS BELOW 12000 FEET WITH NO
SIGNIFICANT WEATHER AND/OR OBSTRUCTIONS TO VISIBILITY.

* THESE STATIONS ARE NOT UNDER NWS QUALITY CONTROL. THEY DO NOT
   REPORT WEATHER SUCH AS PRECIPITATION OR FOG.

MTZ001>007-043-300600-
WEST OF THE DIVIDE
CITY           SKY/WX    TMP DP  RH WIND       PRES   REMARKS
KALISPELL      CLOUDY    45  36  71 S6        30.13S
MISSOULA       PTCLDY    45  34  65 NW3       30.18R
BUTTE          PTCLDY    37  27  67 E5        30.19R WCI  33
MULLAN PASS    MOCLDY    37  27  67 SW9G16    30.16F WCI  30
* ESSEX        N/A       43  35  73 NW1        N/A
* EUREKA APT   MOCLDY    52  34  50 SE8        N/A
* HAMILTON APT PTCLDY    45  30  56 S8        30.17S
* LIBBY APT    MOCLDY    45  36  71 CALM      30.13S
* LINCOLN      N/A       46  30  54 SW4G13     N/A
* LOOKOUT PASS N/A       43  31  63 NE4        N/A
* POLSON       N/A       44  34  68 N/A        N/A
* SEELEY LAKE  N/A       40  31  70 SW1        N/A
* THOMP F APT  MOCLDY    39  15  37 N4         N/A
$$

MTZ008-052>055-300600-
SOUTHWEST MONTANA
CITY           SKY/WX    TMP DP  RH WIND       PRES   REMARKS
BOZEMAN        CLOUDY    48  25  41 S5        30.15S
DILLON         MOCLDY    48  23  37 S8        30.17R
* W YELLOWSTON CLEAR     30  20  66 NW1        N/A
* BOULDER HILL N/A       41  22  47 S1         N/A
* HOMESTAKE PS N/A       38  25  60 NW3        N/A
* MONIDA PASS  N/A       36  16  44 N/A        N/A
* RAYNOLDS PAS N/A       38  25  60 S6         N/A   WCI  33
* WHITEHALL    N/A       48  27  44 NW8        N/A
* WISE RIVER   N/A       41  25  53 SW8G13     N/A
$$

MTZ009>010-012-014-046-048-049-054-300600-
EAST SLOPES AND CENTRAL MONTANA
CITY           SKY/WX    TMP DP  RH WIND       PRES   REMARKS
CUT BANK       CLOUDY    46  30  54 SW10      29.99R
GREAT FALLS    CLOUDY    52  30  43 SW25G33   30.02R
HELENA         MOCLDY    52  28  40 S6        30.13S
MALMSTROM AFB  CLOUDY    54  30  40 SW25G39   30.02R
* DEARBORN     N/A       54  30  40 SE9G26     N/A
* EAST GLACIER N/A       46  29  52 SW20G32    N/A
* MONARCH      N/A       47  20  34 SW25G33    N/A
* PENDROY      N/A       43  28  56 W1         N/A
* ROGERS PASS  N/A       43  29  58 SE11G24    N/A
* SAINT MARY   N/A       46  29  52 SW12G29    N/A
* WHITE SULPH  N/A       48  25  41 W6G26      N/A
$$

MTZ011-013-016-021-035-040-045-047-050-051-300600-
NORTH CENTRAL MONTANA
CITY           SKY/WX    TMP DP  RH WIND       PRES   REMARKS
HAVRE          PTCLDY    50  32  50 SW16      29.93S
LEWISTOWN      MOCLDY    45  28  51 SW14      30.02R
* N BAR RANCH  CLEAR     43  27  53 CALM      30.02S
* CHINOOK      PTCLDY    55  30  39 W22G28    29.91R
* FORT BENTON  CLOUDY    54  30  40 SW14      30.00R
* CHESTER      N/A       50  30  46 NE1        N/A
* DENTON       N/A       50  28  43 W12        N/A
* GEYSER       N/A       49  23  36 NW11       N/A
* JUDITH GAP   N/A       49  21  33 W22G29     N/A
* LOMA         N/A       54  30  40 SW15G24    N/A
$$

MTZ017>020-022>027-061-062-300600-
NORTHEAST MONTANA
CITY           SKY/WX    TMP DP  RH WIND       PRES   REMARKS
GLASGOW        CLEAR     45  30  56 W8        29.89R
GLENDIVE       PTCLDY    37  28  70 W7        29.94F WCI  32
JORDAN         PTCLDY    43  34  71 CALM      29.93F
SIDNEY         PTCLDY    43  30  60 S10       29.90F
WOLF POINT     PTCLDY    39  32  76 CALM      29.89S
* BEAVER HILL  N/A       47  29  50 SW12       N/A
* CIRCLE       N/A       47  33  58 W4         N/A
* LINDSAY DVD  N/A       48  29  48 SW12       N/A
* NAVAJO       N/A       43  33  68 SW11       N/A
* PLENTYWOOD A PTCLDY    45  34  65 W5        29.84F
* POPLAR APT   PTCLDY    45  34  65 SW6       29.88F
* SACO         N/A       47  32  56 SW8        N/A
$$

MTZ028>042-056>058-300600-
SOUTHCENTRAL AND SOUTHEAST MONTANA
CITY           SKY/WX    TMP DP  RH WIND       PRES   REMARKS
BAKER          PTCLDY    43  28  56 CALM      29.97F
BILLINGS       MOCLDY    48  21  34 NW10      30.03R
LIVINGSTON     PTCLDY    54  23  30 W22G30    30.09S
MILES CITY     PTCLDY    45  27  49 CALM      29.96F
* BIG TIMBER A PTCLDY    52  25  35 SW10      30.08R
* FORSYTH APT  PTCLDY    43  27  53 SW3       29.97F
* ALZADA       N/A       40  27  60 E3         N/A
* HYSHAM       N/A       51  18  27 W2         N/A
* LAME DEER    N/A       49  19  30 SW6        N/A
* REED POINT   N/A       58  26  29 W12        N/A
* ROSCOE HILL  N/A       52  10  18 W7G12      N/A
$$

REGIONAL REPORTS...DAKOTAS
CITY           SKY/WX    TMP DP  RH WIND       PRES   REMARKS
WILLISTON      CLEAR     45  34  65 S7        29.87F
DICKINSON      MOCLDY    39  28  65 SW6       29.92F WCI  35
BEACH          CLEAR     39  28  65 SW6       29.95F WCI  35
CROSBY         CLEAR     39  36  89 S9        29.84F WCI  33
TIOGA          CLEAR     41  32  70 SW7       29.89F
WATFORD CITY   CLEAR     37  32  82 SW5       29.88F WCI  33
BISMARCK       CLOUDY    41  30  65 CALM      29.94F
GRAND FORKS    CLEAR     32  27  82 W7        29.90S WCI  25
FARGO          CLEAR     37  27  67 W6        29.92S WCI  32
BUFFALO SD     PTCLDY    43  28  56 W6        29.94F
RAPID CITY     MOCLDY    45  27  49 CALM      30.05F
$$

REGIONAL REPORTS...WYOMING/IDAHO/WASHINGTON
CITY           SKY/WX    TMP DP  RH WIND       PRES   REMARKS
GILLETTE       CLEAR     37  27  67 S6        30.06F WCI  32
SHERIDAN       PTCLDY    37  27  67 CALM      30.04F
CODY           CLEAR     54  14  20 W12G21    30.11S
YELLOWSTONE LA PTCLDY    27  18  69 CALM      30.28S
SALMON         PTCLDY    39  27  62 CALM      30.18R
MULLAN PASS    MOCLDY    37  27  67 SW9G16    30.16S WCI  30
SAND POINT     MOCLDY    45  43  93 CALM      30.13R
SPOKANE        MOCLDY    52  36  55 S6        30.13S
$$

REGIONAL REPORTS...ALBERTA
CITY           SKY/WX    TMP DP  RH WIND       PRES   REMARKS
CALGARY        FAIR      48  28  46 W13G20    29.89R
LETHBRIDGE     CLEAR     48  32  54 SW14      29.95R
MEDICINE HAT   CLEAR     52  36  55 W23G35    29.85R
EDMONTON       MOCLDY    41  32  70 W5        29.85R
WATERTON GATE  N/A       48  28  46 S7G18      N/A
CARDSTON       N/A       50  30  46 SW15G22    N/A
MILK RIVER     N/A       46  32  58 W15        N/A
$$

REGIONAL REPORTS...SASKATCHEWAN
CITY           SKY/WX    TMP DP  RH WIND       PRES   REMARKS
SWIFT CURRENT  CLOUDY    48  34  59 SW18G24   29.76F
REGINA         FAIR      41  36  82 SE12      29.80F
VAL MARIE      N/A       45  32  60 W13        N/A
ASSINIBOIA     N/A       43  34  71 SW10       N/A
CORONACH       N/A       46  34  63 SW12       N/A

$$




USA.gov is the U.S. government's official web portal to all federal, state and local government web resources and services.